Weather History for GMTA - November, 2013

Change the Weather History Date:

Wednesday, November 27, 2013

  Actual Average Record
Temperature  
Mean Temperature 54 °F -  
Max Temperature 66 °F 62 °F 75 °F (2002)
Min Temperature 43 °F 48 °F 42 °F (2008)
Degree Days  
Heating Degree Days 10    
Growing Degree Days 4 (Base 50)    
Moisture  
Dew Point 43 °F    
Average Humidity 59    
Maximum Humidity 76    
Minimum Humidity 30    
Precipitation  
Precipitation 0.00 in - - ()
Sea Level Pressure  
Sea Level Pressure 30.09 in    
Wind  
Wind Speed 4 mph ()    
Max Wind Speed 12 mph    
Max Gust Speed -    
Visibility 6.3 miles    
Events      
Averages and records for this station are not official NWS values.
T = Trace of Precipitation, MM = Missing Value Source: Averaged Metar Reports

Daily Weather History Graph

Daily Weather History Graph

Search for Another Location

Airport or City:

Trip Planner

Search our weather history database for the weather conditions in past years. The results will help you decide how hot, cold, wet, or windy it might be!

Date:

Astronomy

Nov. 27, 2013 Rise Set
Actual Time 7:01 AM WET 5:04 PM WET
Civil Twilight 6:34 AM WET 5:31 PM WET
Nautical Twilight 6:02 AM WET 6:02 PM WET
Astronomical Twilight 5:32 AM WET 6:33 PM WET
Moon 1:02 AM WET (11/27) 1:22 PM WET (11/27)
Length of Visible Light 10h 57m
Length of Day
10h 02m
Waning Crescent, 34% of the Moon is Illuminated
Nov 27
Waning Crescent
Dec 3
New
Dec 9
First Quarter
Dec 17
Full
Dec 25
Last Quarter

Hourly Weather History & Observations

Time (WET) Temp. Dew Point Humidity Pressure Visibility Wind Dir Wind Speed Gust Speed Precip Events Conditions
12:00 AM 54 °F 43 °F 57% 30.10 in 6 mi WNW 2.3 mph - -  
12:00 AM 53.6 °F 42.8 °F 67% 30.09 in - Variable 2.3 mph - N/A   Clear
6:00 AM 52 °F 44 °F 64% 30.08 in 6 mi SE 4.6 mph - -  
6:00 AM 51.8 °F 42.8 °F 71% 30.06 in - SE 4.6 mph - N/A   Clear
8:00 AM 46.4 °F 39.2 °F 76% 30.04 in 6.2 mi Variable 2.3 mph - N/A   Partly Cloudy
9:00 AM 55 °F 45 °F 59% 30.09 in 9 mi SW 4.6 mph - -   Scattered Clouds
9:00 AM 55.4 °F 44.6 °F 67% 30.06 in 6.2 mi SW 4.6 mph - N/A   Scattered Clouds
10:00 AM 59.0 °F 46.4 °F 63% 30.06 in - WSW 4.6 mph - N/A   Clear
11:00 AM 60.8 °F 48.2 °F 63% 30.09 in 6.2 mi East 2.3 mph - N/A   Partly Cloudy
12:00 PM 65 °F 54 °F 59% 30.11 in 6 mi NNW 9.2 mph - -   Clear
12:00 PM 64.4 °F 48.2 °F 56% 30.09 in - NNW 9.2 mph - N/A   Clear
1:00 PM 62.6 °F 42.8 °F 48% 30.04 in 6.2 mi NNW 6.9 mph - N/A   Partly Cloudy
2:00 PM 64.4 °F 42.8 °F 45% 30.04 in 6.2 mi NNE 11.5 mph - N/A   Partly Cloudy
3:00 PM 64 °F 40 °F 30% 30.09 in 6 mi NE 9.2 mph - -   Scattered Clouds
3:00 PM 64.4 °F 39.2 °F 40% 30.06 in 6.2 mi NE 9.2 mph - N/A   Mostly Cloudy
4:00 PM 62.6 °F 42.8 °F 48% 30.06 in 6.2 mi East 6.9 mph - N/A   Mostly Cloudy
5:00 PM 59.0 °F 42.8 °F 55% 30.09 in 6.2 mi East 6.9 mph - N/A   Mostly Cloudy
6:00 PM 57 °F 44 °F 52% 30.12 in 6 mi East 6.9 mph - -   Scattered Clouds
6:00 PM 57.2 °F 44.6 °F 63% 30.09 in 6.2 mi East 6.9 mph - N/A   Mostly Cloudy
7:00 PM 55.4 °F 42.8 °F 63% 30.12 in - North - - N/A   Mostly Cloudy
8:00 PM 57.2 °F 42.8 °F 59% 30.15 in 6.2 mi ESE 4.6 mph - N/A   Mostly Cloudy
9:00 PM 52 °F 41 °F 56% 30.17 in 6 mi WSW 2.3 mph - -   Scattered Clouds
9:00 PM 51.8 °F 41.0 °F 67% 30.15 in 6.2 mi Variable 2.3 mph - N/A   Mostly Cloudy
10:00 PM 50.0 °F 41.0 °F 71% 30.15 in 6.2 mi SSW 9.2 mph - N/A   Mostly Cloudy
11:00 PM 50.0 °F 41.0 °F 71% 30.15 in 6.2 mi SSW 4.6 mph - N/A   Scattered Clouds